Theta_e
313 310 312 314 314 316 317 318 319 318 319 318 318 316 316 318 316 315 314 316 317 318
312 310 312 312 313 312 313 315 314 314 313 315 315 314 313 313 312 315 313 314 313 313
307 311 311 312 311 309 309 309 310 311 311 313 313 312 312 311 310 309 308 308 308 308
305 305 309 310 308 306 305 306 307 310 310 310 310 309 309 308 304 306 303 303 303 305
303 304 304 307 305 304 303 305 305 308 308 307 308 307 306 305 305 302 300 300 300 300
303 302 303 308 306 306 305 305 305 306 306 306 306 306 305 305 303 302 301 299 299 299
304 303 309 307 305 304 304 304 304 303 303 303 304 304 304 302 299 300 301 301 304 301
307 309 306 304 302 303 302 303 302 301 301 301 301 303 301 299 297 298 299 302 303 305
309 305 303 302 301 301 300 300 300 300 300 299 300 301 303 300 300 300 300 300 302 303
304 302 301 300 300 299 298 299 298 299 299 299 299 299 300 303 301 301 300 300 301 302
301 299 299 299 298 298 298 298 298 298 299 298 298 299 298 301 301 300 300 300 301 301
299 298 298 297 297 298 298 298 295 296 294 294 294 297 297 299 298 301 301 301 300 300
299 297 297 297 297 297 297 298 297 296 297 299 294 296 297 301 301 297 299 300 299 299
298 297 297 297 297 297 299 299 298 299 299 298 296 296 297 298 300 299 299 299 299 299
Wind_Speed
5 4 5 4 3 4 5 5 8 6 5 6 6 7 5 3 5 3 3 3 4 4
5 5 6 6 4 3 4 5 6 6 5 5 5 6 4 4 4 3 4 4 3 3
6 5 5 5 5 5 4 5 5 7 6 5 6 7 5 4 5 4 3 3 4 3
7 7 5 3 2 3 3 5 5 5 5 5 5 6 5 4 5 4 4 3 4 5
7 7 7 4 2 2 2 2 4 4 4 5 5 5 5 4 4 4 5 6 7 5
9 7 7 2 3 3 3 3 3 4 5 6 6 5 4 4 3 4 4 6 5 5
9 7 3 1 4 4 5 4 4 5 6 7 7 5 4 4 5 6 5 6 6 6
10 2 3 5 5 6 5 5 4 6 7 7 6 5 4 5 6 5 6 6 6 7
4 6 6 5 5 5 4 4 3 8 6 6 4 8 8 3 3 4 4 4 5 5
6 7 6 6 5 6 5 4 5 5 5 5 4 3 4 5 2 3 3 4 4 5
6 6 6 7 6 5 3 4 3 4 4 3 4 9 8 7 5 5 5 4 4 4
6 7 6 6 4 4 4 5 5 3 5 6 5 9 7 5 3 4 4 4 6 4
6 6 5 3 4 4 3 3 3 4 4 6 6 9 8 4 3 5 4 5 5 10
5 5 4 4 3 5 5 3 3 4 5 6 6 6 7 6 4 3 5 6 6 4
Wind_Direction
9 0 311 332 2 342 351 335 332 347 30 11 3 52 3 336 43 299 305 335 360 325
348 336 311 330 360 348 341 332 331 337 358 25 9 9 18 339 16 11 1 352 337 314
324 311 306 334 359 353 356 334 332 327 343 13 20 1 6 354 356 8 353 345 328 340
313 316 321 320 354 354 351 338 332 344 350 2 18 5 12 359 355 5 345 348 359 346
306 312 319 302 36 344 20 356 343 351 14 24 23 27 4 346 350 14 5 6 14 345
305 300 304 23 18 16 36 37 12 25 35 38 17 30 349 336 348 27 17 26 5 357
291 290 254 51 61 40 33 33 39 58 44 42 22 7 8 3 10 20 17 14 2 1
302 75 62 50 52 54 39 40 30 63 51 38 37 9 23 22 21 14 17 13 8 10
8 65 59 53 44 54 44 46 44 55 39 41 31 22 41 56 28 31 34 17 358 358
34 55 50 51 46 36 24 26 32 41 24 10 317 18 52 24 37 77 45 16 5 6
55 56 46 44 26 21 5 24 29 25 13 356 339 359 357 7 22 49 36 26 28 44
63 60 49 42 10 6 5 25 9 8 356 354 346 354 12 39 1 38 41 23 34 27
61 63 60 35 354 336 4 9 358 353 357 6 18 12 17 57 22 32 18 26 42 38
58 54 26 360 339 330 352 358 18 22 8 33 39 38 43 29 49 34 47 30 22 18